Time,TemperatureF,DewpointF,PressureIn,WindDirection,WindDirectionDegrees,WindSpeedMPH,WindSpeedGustMPH,Humidity,HourlyPrecipIn,Conditions,Clouds,dailyrainin,SoftwareType,DateUTC
2013-02-19 00:02:00,34.0,14.0,30.21,South,176,0.0,2.0,44,0.00,,,0.00,,2013-02-19 05:02:00,
2013-02-19 00:13:00,34.0,14.0,30.21,South,176,0.0,2.0,44,0.00,,,0.00,,2013-02-19 05:13:00,
2013-02-19 00:22:00,34.0,14.0,30.21,SE,132,0.0,3.0,44,0.00,,,0.00,,2013-02-19 05:22:00,
2013-02-19 00:32:00,34.0,14.0,30.21,ESE,112,1.0,3.0,44,0.00,,,0.00,,2013-02-19 05:32:00,
2013-02-19 00:43:00,34.0,14.0,30.21,ESE,112,1.0,3.0,44,0.00,,,0.00,,2013-02-19 05:43:00,
2013-02-19 00:52:00,34.0,14.0,30.21,ESE,112,1.0,3.0,44,0.00,,,0.00,,2013-02-19 05:52:00,
2013-02-19 01:03:00,34.0,16.0,30.20,ESE,114,1.0,5.0,47,0.00,,,0.00,,2013-02-19 06:03:00,
2013-02-19 01:12:00,34.0,16.0,30.20,ESE,114,1.0,5.0,47,0.00,,,0.00,,2013-02-19 06:12:00,
2013-02-19 01:22:00,34.0,16.0,30.20,ESE,114,1.0,5.0,47,0.00,,,0.00,,2013-02-19 06:22:00,
2013-02-19 01:32:00,34.0,17.0,30.19,SE,127,1.0,3.0,49,0.00,,,0.00,,2013-02-19 06:32:00,
2013-02-19 01:42:00,34.0,17.0,30.19,SE,127,1.0,3.0,49,0.00,,,0.00,,2013-02-19 06:42:00,
2013-02-19 01:53:00,34.0,16.0,30.19,SW,221,0.0,2.0,48,0.00,,,0.00,,2013-02-19 06:53:00,
2013-02-19 02:02:00,34.0,16.0,30.19,SE,134,0.0,3.0,48,0.00,,,0.00,,2013-02-19 07:02:00,
2013-02-19 02:11:00,34.0,16.0,30.19,SE,134,0.0,3.0,48,0.00,,,0.00,,2013-02-19 07:11:00,
2013-02-19 02:22:00,34.0,16.0,30.19,SE,134,0.0,3.0,48,0.00,,,0.00,,2013-02-19 07:22:00,
2013-02-19 02:32:00,33.0,15.0,30.17,SE,143,0.0,3.0,48,0.00,,,0.00,,2013-02-19 07:32:00,
2013-02-19 02:42:00,33.0,15.0,30.17,SE,143,0.0,3.0,48,0.00,,,0.00,,2013-02-19 07:42:00,
2013-02-19 02:52:00,33.0,15.0,30.17,SE,143,0.0,3.0,48,0.00,,,0.00,,2013-02-19 07:52:00,
2013-02-19 03:02:00,33.0,16.0,30.15,ESE,117,1.0,2.0,49,0.00,,,0.00,,2013-02-19 08:02:00,
2013-02-19 03:11:00,33.0,16.0,30.15,ESE,117,1.0,2.0,49,0.00,,,0.00,,2013-02-19 08:11:00,
2013-02-19 03:22:00,33.0,16.0,30.15,ESE,114,1.0,3.0,49,0.00,,,0.00,,2013-02-19 08:22:00,
2013-02-19 03:32:00,33.0,16.0,30.14,SE,138,0.0,2.0,50,0.00,,,0.00,,2013-02-19 08:32:00,
2013-02-19 03:42:00,33.0,16.0,30.14,SE,138,0.0,2.0,50,0.00,,,0.00,,2013-02-19 08:42:00,
2013-02-19 03:52:00,33.0,17.0,30.14,SSE,165,1.0,2.0,51,0.00,,,0.00,,2013-02-19 08:52:00,
2013-02-19 04:02:00,33.0,17.0,30.13,ESE,112,0.0,2.0,51,0.00,,,0.00,,2013-02-19 09:02:00,
2013-02-19 04:11:00,33.0,17.0,30.13,ESE,112,0.0,2.0,51,0.00,,,0.00,,2013-02-19 09:11:00,
2013-02-19 04:22:00,33.0,16.0,30.14,SE,128,1.0,3.0,50,0.00,,,0.00,,2013-02-19 09:22:00,
2013-02-19 04:32:00,33.0,17.0,30.14,SE,131,1.0,2.0,51,0.00,,,0.00,,2013-02-19 09:32:00,
2013-02-19 04:42:00,33.0,17.0,30.14,SE,131,1.0,2.0,51,0.00,,,0.00,,2013-02-19 09:42:00,
2013-02-19 04:52:00,33.0,17.0,30.14,ESE,109,1.0,3.0,52,0.00,,,0.00,,2013-02-19 09:52:00,
2013-02-19 05:02:00,34.0,19.0,30.13,East,95,2.0,5.0,53,0.00,,,0.00,,2013-02-19 10:02:00,
2013-02-19 05:11:00,34.0,19.0,30.13,East,95,2.0,5.0,53,0.00,,,0.00,,2013-02-19 10:11:00,
2013-02-19 05:22:00,34.0,19.0,30.12,SSE,150,1.0,2.0,54,0.00,,,0.00,,2013-02-19 10:22:00,
2013-02-19 05:32:00,34.0,20.0,30.12,SE,140,0.0,3.0,56,0.00,,,0.00,,2013-02-19 10:32:00,
2013-02-19 05:42:00,34.0,20.0,30.12,SE,140,0.0,3.0,56,0.00,,,0.00,,2013-02-19 10:42:00,
2013-02-19 05:52:00,34.0,21.0,30.11,ESE,105,1.0,2.0,58,0.00,,,0.00,,2013-02-19 10:52:00,
2013-02-19 06:01:00,34.0,21.0,30.09,ESE,114,0.0,2.0,59,0.00,,,0.00,,2013-02-19 11:01:00,
2013-02-19 06:11:00,34.0,21.0,30.09,ESE,114,0.0,2.0,59,0.00,,,0.00,,2013-02-19 11:11:00,
2013-02-19 06:22:00,34.0,21.0,30.09,ESE,114,0.0,2.0,59,0.00,,,0.00,,2013-02-19 11:22:00,
2013-02-19 06:32:00,34.0,22.0,30.08,SE,144,0.0,2.0,62,0.00,,,0.00,,2013-02-19 11:32:00,
2013-02-19 06:42:00,34.0,22.0,30.08,SE,144,0.0,2.0,62,0.00,,,0.00,,2013-02-19 11:42:00,
2013-02-19 06:52:00,34.0,22.0,30.08,SE,144,0.0,2.0,62,0.00,,,0.00,,2013-02-19 11:52:00,
2013-02-19 07:02:00,34.0,23.0,30.08,East,84,1.0,2.0,63,0.00,,,0.00,,2013-02-19 12:02:00,
2013-02-19 07:12:00,34.0,23.0,30.08,East,84,1.0,2.0,63,0.00,,,0.00,,2013-02-19 12:12:00,
2013-02-19 07:22:00,34.0,23.0,30.08,SSW,209,0.0,2.0,64,0.00,,,0.00,,2013-02-19 12:22:00,
2013-02-19 07:32:00,35.0,24.0,30.07,South,173,1.0,5.0,63,0.00,,,0.00,,2013-02-19 12:32:00,
2013-02-19 07:42:00,35.0,24.0,30.07,South,173,1.0,5.0,63,0.00,,,0.00,,2013-02-19 12:42:00,
2013-02-19 07:52:00,35.0,24.0,30.07,South,173,1.0,5.0,63,0.00,,,0.00,,2013-02-19 12:52:00,
2013-02-19 08:02:00,37.0,25.0,30.07,ESE,112,2.0,3.0,62,0.00,,,0.00,,2013-02-19 13:02:00,
2013-02-19 08:11:00,37.0,25.0,30.07,ESE,112,2.0,3.0,62,0.00,,,0.00,,2013-02-19 13:11:00,
2013-02-19 08:22:00,37.0,25.0,30.07,East,98,3.0,3.0,62,0.00,,,0.00,,2013-02-19 13:22:00,
2013-02-19 08:32:00,38.0,26.0,30.07,East,89,2.0,8.0,62,0.00,,,0.00,,2013-02-19 13:32:00,
2013-02-19 08:42:00,38.0,26.0,30.07,East,89,2.0,8.0,62,0.00,,,0.00,,2013-02-19 13:42:00,
2013-02-19 08:52:00,39.0,27.0,30.07,ESE,106,1.0,8.0,61,0.00,,,0.00,,2013-02-19 13:52:00,
2013-02-19 09:02:00,40.0,27.0,30.04,ESE,110,1.0,3.0,60,0.00,,,0.00,,2013-02-19 14:02:00,
2013-02-19 09:12:00,40.0,27.0,30.04,ESE,110,1.0,3.0,60,0.00,,,0.00,,2013-02-19 14:12:00,
2013-02-19 09:22:00,40.0,27.0,30.05,WSW,240,2.0,7.0,59,0.00,,,0.00,,2013-02-19 14:22:00,
2013-02-19 09:33:00,40.0,26.0,30.03,East,96,1.0,5.0,58,0.00,,,0.00,,2013-02-19 14:33:00,
2013-02-19 09:42:00,40.0,26.0,30.03,East,96,1.0,5.0,58,0.00,,,0.00,,2013-02-19 14:42:00,
2013-02-19 09:52:00,40.0,26.0,30.03,East,96,1.0,5.0,58,0.00,,,0.00,,2013-02-19 14:52:00,
2013-02-19 10:02:00,42.0,27.0,30.02,SE,131,1.0,6.0,56,0.00,,,0.00,,2013-02-19 15:02:00,
2013-02-19 10:11:00,42.0,27.0,30.02,SE,131,1.0,6.0,56,0.00,,,0.00,,2013-02-19 15:11:00,
2013-02-19 10:22:00,42.0,27.0,30.01,SE,143,2.0,5.0,55,0.00,,,0.00,,2013-02-19 15:22:00,
2013-02-19 10:32:00,43.0,28.0,30.00,ESE,117,3.0,5.0,54,0.00,,,0.00,,2013-02-19 15:32:00,
2013-02-19 10:42:00,43.0,28.0,30.00,ESE,117,3.0,5.0,54,0.00,,,0.00,,2013-02-19 15:42:00,
2013-02-19 10:52:00,43.0,28.0,30.00,ESE,112,2.0,5.0,55,0.00,,,0.00,,2013-02-19 15:52:00,
2013-02-19 11:02:00,45.0,31.0,29.98,ESE,111,3.0,7.0,57,0.00,,,0.00,,2013-02-19 16:02:00,
2013-02-19 11:11:00,45.0,31.0,29.98,ESE,111,3.0,7.0,57,0.00,,,0.00,,2013-02-19 16:11:00,
2013-02-19 11:22:00,45.0,31.0,29.98,ESE,111,3.0,7.0,57,0.00,,,0.00,,2013-02-19 16:22:00,
2013-02-19 11:32:00,45.0,34.0,29.98,ESE,103,2.0,8.0,64,0.00,,,0.00,,2013-02-19 16:32:00,
2013-02-19 11:42:00,45.0,34.0,29.98,ESE,103,2.0,8.0,64,0.00,,,0.00,,2013-02-19 16:42:00,
2013-02-19 11:52:00,45.0,34.0,29.98,ENE,78,1.0,8.0,65,0.00,,,0.00,,2013-02-19 16:52:00,
2013-02-19 12:01:00,46.0,34.0,29.96,East,86,2.0,10.0,63,0.00,,,0.00,,2013-02-19 17:01:00,
2013-02-19 12:11:00,46.0,34.0,29.96,East,86,2.0,10.0,63,0.00,,,0.00,,2013-02-19 17:11:00,
2013-02-19 12:21:00,46.0,34.0,29.96,East,86,2.0,10.0,63,0.00,,,0.00,,2013-02-19 17:21:00,
2013-02-19 12:32:00,47.0,35.0,29.92,East,97,3.0,6.0,62,0.00,,,0.00,,2013-02-19 17:32:00,
2013-02-19 12:42:00,47.0,35.0,29.92,East,97,3.0,6.0,62,0.00,,,0.00,,2013-02-19 17:42:00,
2013-02-19 12:52:00,47.0,35.0,29.92,East,93,3.0,9.0,63,0.00,,,0.00,,2013-02-19 17:52:00,
2013-02-19 13:02:00,47.0,36.0,29.92,SE,134,3.0,5.0,65,0.00,,,0.00,,2013-02-19 18:02:00,
2013-02-19 13:11:00,47.0,36.0,29.92,SE,134,3.0,5.0,65,0.00,,,0.00,,2013-02-19 18:11:00,
2013-02-19 13:21:00,47.0,37.0,29.92,SSW,209,1.0,6.0,67,0.00,,,0.00,,2013-02-19 18:21:00,
2013-02-19 13:32:00,47.0,38.0,29.90,ESE,119,2.0,7.0,70,0.01,,,0.01,,2013-02-19 18:32:00,
2013-02-19 13:42:00,46.0,38.0,29.89,South,177,1.0,6.0,73,0.02,,,0.02,,2013-02-19 18:42:00,
2013-02-19 13:52:00,46.0,38.0,29.89,South,177,1.0,6.0,73,0.02,,,0.02,,2013-02-19 18:52:00,
2013-02-19 14:01:00,46.0,39.0,29.87,South,185,2.0,7.0,75,0.03,,,0.03,,2013-02-19 19:01:00,
2013-02-19 14:11:00,46.0,39.0,29.87,South,185,2.0,7.0,75,0.03,,,0.03,,2013-02-19 19:11:00,
2013-02-19 14:21:00,45.0,39.0,29.86,WSW,247,1.0,3.0,78,0.03,,,0.03,,2013-02-19 19:21:00,
2013-02-19 14:32:00,45.0,39.0,29.85,ESE,115,2.0,5.0,79,0.03,,,0.04,,2013-02-19 19:32:00,
2013-02-19 14:42:00,45.0,39.0,29.85,ESE,115,2.0,5.0,79,0.03,,,0.04,,2013-02-19 19:42:00,
2013-02-19 14:51:00,45.0,39.0,29.84,SSE,167,1.0,2.0,80,0.02,,,0.04,,2013-02-19 19:51:00,
2013-02-19 15:02:00,45.0,40.0,29.83,ESE,107,5.0,10.0,81,0.03,,,0.06,,2013-02-19 20:02:00,
2013-02-19 15:12:00,45.0,40.0,29.83,ESE,107,5.0,10.0,81,0.03,,,0.06,,2013-02-19 20:12:00,
2013-02-19 15:22:00,45.0,40.0,29.83,ESE,107,5.0,10.0,81,0.03,,,0.06,,2013-02-19 20:22:00,
2013-02-19 15:32:00,44.0,40.0,29.80,ESE,113,1.0,3.0,86,0.03,,,0.07,,2013-02-19 20:32:00,
2013-02-19 15:42:00,44.0,40.0,29.80,ESE,113,1.0,3.0,86,0.03,,,0.07,,2013-02-19 20:42:00,
2013-02-19 15:52:00,44.0,40.0,29.79,ESE,115,2.0,7.0,87,0.04,,,0.08,,2013-02-19 20:52:00,
2013-02-19 16:02:00,44.0,41.0,29.77,ESE,120,1.0,3.0,89,0.02,,,0.08,,2013-02-19 21:02:00,
2013-02-19 16:11:00,44.0,41.0,29.77,ESE,120,1.0,3.0,89,0.02,,,0.08,,2013-02-19 21:11:00,
2013-02-19 16:21:00,44.0,41.0,29.77,ESE,120,1.0,3.0,89,0.02,,,0.08,,2013-02-19 21:21:00,
2013-02-19 16:32:00,45.0,42.0,29.75,East,94,2.0,3.0,90,0.02,,,0.09,,2013-02-19 21:32:00,
2013-02-19 16:42:00,45.0,42.0,29.75,East,94,2.0,3.0,90,0.02,,,0.09,,2013-02-19 21:42:00,
2013-02-19 16:52:00,45.0,42.0,29.74,NE,54,6.0,7.0,90,0.01,,,0.09,,2013-02-19 21:52:00,
2013-02-19 17:02:00,45.0,42.0,29.74,South,174,2.0,5.0,90,0.02,,,0.10,,2013-02-19 22:02:00,
2013-02-19 17:11:00,45.0,42.0,29.74,South,174,2.0,5.0,90,0.02,,,0.10,,2013-02-19 22:11:00,
2013-02-19 17:21:00,44.0,41.0,29.73,ESE,118,1.0,6.0,90,0.01,,,0.10,,2013-02-19 22:21:00,
2013-02-19 17:32:00,44.0,42.0,29.72,East,91,1.0,3.0,91,0.02,,,0.11,,2013-02-19 22:32:00,
2013-02-19 17:42:00,44.0,42.0,29.72,East,91,1.0,3.0,91,0.02,,,0.11,,2013-02-19 22:42:00,
2013-02-19 17:52:00,44.0,42.0,29.72,ESE,110,0.0,3.0,91,0.02,,,0.11,,2013-02-19 22:52:00,
2013-02-19 18:01:00,45.0,43.0,29.72,South,174,0.0,2.0,92,0.02,,,0.12,,2013-02-19 23:01:00,
2013-02-19 18:11:00,45.0,43.0,29.72,South,174,0.0,2.0,92,0.02,,,0.12,,2013-02-19 23:11:00,
2013-02-19 18:21:00,45.0,43.0,29.71,South,180,1.0,8.0,92,0.02,,,0.12,,2013-02-19 23:21:00,
2013-02-19 18:32:00,45.0,43.0,29.71,South,180,1.0,8.0,92,0.02,,,0.12,,2013-02-19 23:32:00,
2013-02-19 18:42:00,45.0,43.0,29.71,South,180,1.0,8.0,92,0.02,,,0.12,,2013-02-19 23:42:00,
2013-02-19 18:52:00,46.0,44.0,29.71,SSW,201,2.0,5.0,92,0.02,,,0.13,,2013-02-19 23:52:00,
2013-02-19 19:02:00,46.0,44.0,29.70,South,172,4.0,9.0,92,0.02,,,0.14,,2013-02-20 00:02:00,
2013-02-19 19:11:00,46.0,44.0,29.70,South,172,4.0,9.0,92,0.02,,,0.14,,2013-02-20 00:11:00,
2013-02-19 19:21:00,45.0,43.0,29.70,SSW,198,3.0,8.0,92,0.04,,,0.16,,2013-02-20 00:21:00,
2013-02-19 19:32:00,45.0,43.0,29.69,South,191,3.0,12.0,91,0.03,,,0.16,,2013-02-20 00:32:00,
2013-02-19 19:42:00,45.0,43.0,29.69,South,191,3.0,12.0,91,0.03,,,0.16,,2013-02-20 00:42:00,
2013-02-19 19:52:00,45.0,43.0,29.69,South,174,1.0,7.0,91,0.03,,,0.16,,2013-02-20 00:52:00,
2013-02-19 20:02:00,46.0,44.0,29.68,SSW,201,2.0,10.0,91,0.02,,,0.16,,2013-02-20 01:02:00,
2013-02-19 20:11:00,46.0,44.0,29.68,SSW,201,2.0,10.0,91,0.02,,,0.16,,2013-02-20 01:11:00,
2013-02-19 20:21:00,46.0,43.0,29.67,SSW,206,2.0,9.0,90,0.00,,,0.16,,2013-02-20 01:21:00,
2013-02-19 20:32:00,46.0,43.0,29.68,SW,226,3.0,13.0,89,0.00,,,0.16,,2013-02-20 01:32:00,
2013-02-19 20:42:00,46.0,43.0,29.68,SW,226,3.0,13.0,89,0.00,,,0.16,,2013-02-20 01:42:00,
2013-02-19 20:52:00,46.0,43.0,29.67,SSW,200,3.0,7.0,89,0.00,,,0.16,,2013-02-20 01:52:00,
2013-02-19 21:02:00,45.0,42.0,29.68,South,190,3.0,5.0,88,0.00,,,0.16,,2013-02-20 02:02:00,
2013-02-19 21:11:00,45.0,42.0,29.68,South,190,3.0,5.0,88,0.00,,,0.16,,2013-02-20 02:11:00,
2013-02-19 21:21:00,45.0,42.0,29.68,SSW,212,4.0,8.0,88,0.00,,,0.16,,2013-02-20 02:21:00,
2013-02-19 21:32:00,44.0,40.0,29.68,ESE,111,1.0,7.0,86,0.00,,,0.16,,2013-02-20 02:32:00,
2013-02-19 21:42:00,44.0,40.0,29.68,ESE,111,1.0,7.0,86,0.00,,,0.16,,2013-02-20 02:42:00,
2013-02-19 21:52:00,44.0,40.0,29.68,South,191,5.0,6.0,86,0.00,,,0.16,,2013-02-20 02:52:00,
2013-02-19 22:02:00,44.0,40.0,29.69,SW,231,1.0,8.0,85,0.00,,,0.16,,2013-02-20 03:02:00,
2013-02-19 22:12:00,44.0,40.0,29.69,SW,231,1.0,8.0,85,0.00,,,0.16,,2013-02-20 03:12:00,
2013-02-19 22:22:00,43.0,38.0,29.69,SSW,208,2.0,5.0,84,0.00,,,0.16,,2013-02-20 03:22:00,
2013-02-19 22:32:00,43.0,37.0,29.69,SSW,203,0.0,3.0,78,0.00,,,0.16,,2013-02-20 03:32:00,
2013-02-19 22:42:00,43.0,37.0,29.69,SSW,203,0.0,3.0,78,0.00,,,0.16,,2013-02-20 03:42:00,
2013-02-19 22:52:00,42.0,35.0,29.70,South,189,1.0,8.0,75,0.00,,,0.16,,2013-02-20 03:52:00,
2013-02-19 23:01:00,42.0,34.0,29.70,NW,317,1.0,3.0,73,0.00,,,0.16,,2013-02-20 04:01:00,
2013-02-19 23:11:00,42.0,34.0,29.70,NW,317,1.0,3.0,73,0.00,,,0.16,,2013-02-20 04:11:00,
2013-02-19 23:21:00,42.0,34.0,29.70,NW,317,1.0,3.0,73,0.00,,,0.16,,2013-02-20 04:21:00,
2013-02-19 23:32:00,40.0,30.0,29.72,SSW,208,1.0,7.0,67,0.00,,,0.16,,2013-02-20 04:32:00,
2013-02-19 23:42:00,40.0,30.0,29.72,SSW,208,1.0,7.0,67,0.00,,,0.16,,2013-02-20 04:42:00,
2013-02-19 23:52:00,40.0,30.0,29.72,East,96,3.0,9.0,66,0.00,,,0.16,,2013-02-20 04:52:00,